This is the latest recevied weather packets stored in our database for station/object KG5WBN. If no packets are shown the sender has not sent any weather packets the latest 10 day(s).
| Time | Temp. | Humidity | Pressure | Rain* | Wind** | Luminosity | Snow |
|---|---|---|---|---|---|---|---|
| 1788103837 | 31.11° C | 58% | 1016.6 hPa | 0 mm | - | 139 W/m² | - |
| 1788103532 | 30.56° C | 59% | 1016.3 hPa | 0 mm | - | 268 W/m² | - |
| 1788103231 | 30° C | 58% | 1016.6 hPa | 0 mm | - | 104 W/m² | - |
| 1788102930 | 30.56° C | 58% | 1016.3 hPa | 0 mm | - | 310 W/m² | - |
| 1788102626 | 31.11° C | 58% | 1016.3 hPa | 0 mm | - | 183 W/m² | - |
| 1788102325 | 30° C | 61% | 1016.3 hPa | 0 mm | - | 279 W/m² | - |
| 1788102020 | 30° C | 61% | 1016.6 hPa | 0 mm | - | 104 W/m² | - |
| 1788101719 | 29.44° C | 74% | 1016.3 hPa | 0 mm | - | 246 W/m² | - |
| 1788101415 | 28.89° C | 74% | 1016.3 hPa | 0 mm | - | 125 W/m² | - |
| 1788101111 | 28.33° C | 84% | 1016.3 hPa | 0 mm | - | 192 W/m² | - |
| 1788100807 | 28.33° C | 83% | 1016.3 hPa | 0 mm | - | 110 W/m² | - |
| 1788100502 | 27.78° C | 87% | 1016.3 hPa | 0 mm | - | 170 W/m² | - |
| 1788100200 | 27.78° C | 94% | 1016.3 hPa | 0 mm | - | 80 W/m² | - |
| 1788099895 | 27.78° C | 99% | 1016.3 hPa | 0 mm | - | 146 W/m² | - |
| 1788099590 | 27.22° C | 99% | 1016.3 hPa | 0 mm | - | 99 W/m² | - |
| 1788099286 | 26.67° C | 99% | 1016.3 hPa | 0 mm | - | 180 W/m² | - |
| 1788098981 | 26.11° C | 99% | 1016.3 hPa | 0 mm | - | 48 W/m² | - |
| 1788098676 | 26.11° C | 99% | 1016.3 hPa | 0 mm | - | 38 W/m² | - |
| 1788098375 | 26.11° C | 99% | 1016.3 hPa | 0 mm | - | 55 W/m² | - |
| 1788098070 | 26.11° C | 99% | 1016.3 hPa | 0 mm | - | 72 W/m² | - |
| 1788097766 | 26.67° C | 99% | 1016.3 hPa | 0 mm | - | 93 W/m² | - |
| 1788097461 | 26.67° C | 99% | 1016.3 hPa | 0 mm | - | 58 W/m² | - |
| 1788097157 | 26.67° C | 99% | 1016.3 hPa | 0 mm | - | 83 W/m² | - |
| 1788096852 | 26.67° C | 99% | 1016.3 hPa | 0 mm | - | 48 W/m² | - |
| 1788096548 | 26.67° C | 99% | 1016.3 hPa | 0 mm | - | 49 W/m² | - |
* Rain latest hour (hover to see other rain measurements)
** Current wind speed in m/s (hover to see current wind gust speed)